Regional Weather Roundup
Issued by NWS Albany, NY

Home | Current Version | Previous Version | Text Only | Print | Product List | Glossary On
Versions: 1 2 3 4 5 6 7 8 9 10 11 12 13 14 15 16 17 18 19 20 21 22 23 24 25 26 27 28 29 30 31 32 33 34 35 36 37 38 39 40 41 42 43 44 45 46 47 48 49 50
000
ASUS41 KALY 012110
RWRALY

NEW YORK STATE HOURLY WEATHER ROUNDUP
NATIONAL WEATHER SERVICE ALBANY NY
500 PM EDT SAT AUG 01 2015

NOTE: "FAIR" INDICATES FEW OR NO CLOUDS BELOW 12,000 FEET WITH NO
SIGNIFICANT WEATHER AND/OR NO OBSTRUCTIONS TO VISIBILITY.

NYZ032-033-038>043-046>054-057>066-NYZ062>081-012200-
EAST


CITY           SKY/WX    TMP DP  RH WIND       PRES   REMARKS
ALBANY         MOSUNNY   83  56  39 W15       29.76S
GLENS FALLS    MOSUNNY   80  55  42 W10G21    29.74S
POUGHKEEPSIE   PTSUNNY   86  53  32 W9        29.75F
NEWBURGH       PTSUNNY   84  57  39 W16       29.79S
MONTGOMERY     PTSUNNY   83  56  39 NW9       29.78S
WHITE PLAINS   MOSUNNY   84  56  38 NW15      29.78R
ISLIP          PTSUNNY   88  57  34 SW17G29   29.74S
NEW YORK CITY  PTSUNNY   89  53  29 W10G22    29.76S
CENTRAL PARK   MOSUNNY   84  57  39 VRB5      29.80R
$$

NYZ005>009-017-018-044>046-055-056-012200-
CENTRAL


CITY           SKY/WX    TMP DP  RH WIND       PRES   REMARKS
FULTON         SUNNY     76  54  46 W16       29.83S
SYRACUSE       PTSUNNY   78  59  51 W12       29.81S
ROME           SUNNY     77  53  43 W15       29.82S
ELMIRA         MOSUNNY   80  52  37 W14       29.84S
BINGHAMTON     MOSUNNY   76  54  46 W12       29.86S
MONTICELLO     SUNNY     79  54  41 NW14      29.85S
$$

NYZ026>034-041>043-012200-
NORTH


CITY           SKY/WX    TMP DP  RH WIND       PRES   REMARKS
WATERTOWN      MOSUNNY   74  60  61 SW13G23   29.80S
FORT DRUM      NOT AVBL
MASSENA        RAIN      65  57  75 W12       29.75R
SARANAC LAKE   PTSUNNY   70  51  51 W9G18     29.79R
PLATTSBURGH    MOSUNNY   80  52  37 W8G17     29.72R
$$

NYZ001>004-010>016-019>021-012200-
WEST


CITY           SKY/WX    TMP DP  RH WIND       PRES   REMARKS
NIAGARA FALLS  TSTM      72  57  59 SW10      29.83F
BUFFALO        PTSUNNY   75  54  47 SW15      29.84F
DUNKIRK        MOSUNNY   76  57  51 SW15G23   29.87F
JAMESTOWN      SUNNY     73  48  40 W16G24    29.92F
WELLSVILLE     MOSUNNY   75  49  39 W13       29.93F
ROCHESTER      MOSUNNY   76  51  41 W9        29.84S
PENN YAN       CLOUDY    76  55  48 NW8       29.86S
$$

             KEY
       WCI = WIND CHILL INDEX
       VSB = VISIBILITY
       HX  = HEAT INDEX
$$



USA.gov is the U.S. government's official web portal to all federal, state and local government web resources and services.